Погода в Таскале

Казахстан     51°06′22″N   50°17′14″E
темп.,
°C
ветер,
м/с
пор.,
м/с
влажн.,
%
обл.,
%
осадки,
мм/ч
давл.,
гПа
погр.,
м
2 марта, вт
вт223:00−17зсз339619 0.0 102420
02:00−17з34960 0.0 102436
05:00−17зюз34970 0.0 102357
08:00−17юз479940 0.0 102198
11:00−12юз7119563 0.0 1019291
14:00−7юз81494100 0.0 1016504
17:00−3юз91495100 0.4 1013877
20:00−2юз91696100 1.1 1010803
3 марта, ср
ср323:00−2юз81496100 2.3 1008716
02:00−1юз71396100 0.9 1005595
05:00−2юз61197100 1.4 1004448
08:00−2зюз5997100 0.6 1003352
11:00−2зюз479795 0.8 1004266
14:000сз4710082 0.1 1005505
17:00−2сз599191 0.4 1005526
20:00−5зсз599087 0.0 1007246
4 марта, чт
чт423:00−8зсз599569 0.0 1010153
02:00−8зсз5119443 0.1 1011238
05:00−11зсз5109341 0.1 1013180
08:00−13з47930 0.0 1014109
11:00−9зюз612930 0.0 1015287
14:00−6зюз7139398 0.0 1014451
17:00−2зюз9149098 0.1 1013871
20:00−1зюз81588100 0.1 1011843
5 марта, пт
пт523:00−2юз8188483 0.1 1011557
02:00−2юз817840 0.0 1010512
05:00−2юз9178531 0.0 1009526
08:00−2юз8178979 0.0 1009548
11:00−1зюз9159689 0.3 1009704
14:00+1юз814100100 0.4 1010592
17:00+1зюз613100100 0.5 1011504
20:00+1зюз51098100 0.1 1013398
6 марта, сб
сб623:00+1зюз3799100 0.2 1015237
02:000юз2699100 0.0 1014213
05:000ююз4798100 0.4 1013229
08:00+1ююз713100100 1.1 1010359
11:00+1ююз81591100 1.1 1008529
14:00+1юз81696100 0.0 1007683
17:00+1юз81698100 0.0 1006622
20:00+1юз71498100 0.6 1006487